Time,TemperatureF,DewpointF,PressureIn,WindDirection,WindDirectionDegrees,WindSpeedMPH,WindSpeedGustMPH,Humidity,HourlyPrecipIn,Conditions,Clouds,dailyrainin,SoftwareType,DateUTC
2013-09-11 00:01:00,73.4,44.1,29.85,NNE,14,4.5,5.8,35,0.00,,CLR,0.00,VWS V14.01,2013-09-11 05:01:00,
2013-09-11 00:06:00,73.2,44.7,29.85,NNE,15,3.6,4.0,36,0.00,,CLR,0.00,VWS V14.01,2013-09-11 05:06:00,
2013-09-11 00:12:00,73.0,44.5,29.85,North,2,2.7,4.0,36,0.00,,CLR,0.00,VWS V14.01,2013-09-11 05:12:00,
2013-09-11 00:17:00,73.0,44.5,29.85,NNE,14,4.0,4.0,36,0.00,,CLR,0.00,VWS V14.01,2013-09-11 05:17:00,
2013-09-11 00:23:00,72.9,44.4,29.85,NNE,17,5.4,5.4,36,0.00,,CLR,0.00,VWS V14.01,2013-09-11 05:23:00,
2013-09-11 00:28:00,72.7,44.9,29.85,NNE,13,4.0,5.4,37,0.00,,CLR,0.00,VWS V14.01,2013-09-11 05:28:00,
2013-09-11 00:33:00,72.7,44.9,29.85,NNE,12,3.6,3.6,37,0.00,,CLR,0.00,VWS V14.01,2013-09-11 05:33:00,
2013-09-11 00:39:00,72.5,44.8,29.85,North,6,2.7,3.1,37,0.00,,CLR,0.00,VWS V14.01,2013-09-11 05:39:00,
2013-09-11 00:44:00,72.5,44.8,29.85,North,7,0.0,0.0,37,0.00,,CLR,0.00,VWS V14.01,2013-09-11 05:44:00,
2013-09-11 00:50:00,72.5,45.5,29.88,NNE,12,0.0,0.0,38,0.00,,CLR,0.00,VWS V14.01,2013-09-11 05:50:00,
2013-09-11 00:56:00,72.5,45.5,29.88,NE,38,0.0,0.0,38,0.00,,CLR,0.00,VWS V14.01,2013-09-11 05:56:00,
2013-09-11 01:02:00,72.5,45.5,29.88,NE,42,0.0,0.0,38,0.00,,BKN100,0.00,VWS V14.01,2013-09-11 06:02:00,
2013-09-11 01:08:00,72.5,45.5,29.88,NE,43,0.0,0.0,38,0.00,,BKN100,0.00,VWS V14.01,2013-09-11 06:08:00,
2013-09-11 01:13:00,72.5,45.5,29.88,NE,43,0.0,0.0,38,0.00,,BKN100,0.00,VWS V14.01,2013-09-11 06:13:00,
2013-09-11 01:19:00,72.5,46.2,29.88,NE,54,0.0,0.0,39,0.00,,BKN100,0.00,VWS V14.01,2013-09-11 06:19:00,
2013-09-11 01:24:00,72.5,46.2,29.88,NE,54,0.0,0.0,39,0.00,,BKN100,0.00,VWS V14.01,2013-09-11 06:24:00,
2013-09-11 01:29:00,72.5,46.2,29.88,NE,54,0.0,0.0,39,0.00,,BKN100,0.00,VWS V14.01,2013-09-11 06:29:00,
2013-09-11 01:35:00,72.5,46.2,29.85,NE,54,0.0,0.0,39,0.00,,BKN100,0.00,VWS V14.01,2013-09-11 06:35:00,
2013-09-11 01:40:00,72.5,46.2,29.85,NE,54,0.0,0.0,39,0.00,,BKN100,0.00,VWS V14.01,2013-09-11 06:40:00,
2013-09-11 01:46:00,72.5,46.8,29.85,NE,54,0.0,0.0,40,0.00,,BKN100,0.00,VWS V14.01,2013-09-11 06:46:00,
2013-09-11 01:51:00,72.3,47.3,29.88,NE,54,0.0,0.0,41,0.00,,BKN100,0.00,VWS V14.01,2013-09-11 06:51:00,
2013-09-11 01:56:00,72.3,47.3,29.88,NE,54,0.0,0.0,41,0.00,,BKN100,0.00,VWS V14.01,2013-09-11 06:56:00,
2013-09-11 02:01:00,72.1,46.5,29.88,NE,54,0.0,0.0,40,0.00,,BKN090,0.00,VWS V14.01,2013-09-11 07:01:00,
2013-09-11 02:06:00,71.8,46.8,29.88,NE,54,0.0,0.0,41,0.00,,BKN090,0.00,VWS V14.01,2013-09-11 07:06:00,
2013-09-11 02:11:00,71.8,46.8,29.88,NE,54,0.0,0.0,41,0.00,,BKN090,0.00,VWS V14.01,2013-09-11 07:11:00,
2013-09-11 02:16:00,71.6,46.7,29.88,NE,54,0.0,0.0,41,0.00,,BKN090,0.00,VWS V14.01,2013-09-11 07:16:00,
2013-09-11 02:21:00,71.4,47.2,29.88,NE,54,0.0,0.0,42,0.00,,BKN090,0.00,VWS V14.01,2013-09-11 07:21:00,
2013-09-11 02:27:00,71.2,47.0,29.88,NE,54,0.0,0.0,42,0.00,,BKN090,0.00,VWS V14.01,2013-09-11 07:27:00,
2013-09-11 02:33:00,71.1,47.5,29.88,NE,54,0.0,0.0,43,0.00,,BKN090,0.00,VWS V14.01,2013-09-11 07:33:00,
2013-09-11 02:39:00,70.7,47.1,29.88,NE,54,0.0,0.0,43,0.00,,BKN090,0.00,VWS V14.01,2013-09-11 07:39:00,
2013-09-11 02:44:00,70.5,47.6,29.88,NE,54,0.0,0.0,44,0.00,,BKN090,0.00,VWS V14.01,2013-09-11 07:44:00,
2013-09-11 02:49:00,70.3,48.6,29.88,NE,54,0.0,0.0,46,0.00,,BKN090,0.00,VWS V14.01,2013-09-11 07:49:00,
2013-09-11 02:54:00,70.3,49.2,29.88,NE,54,0.0,0.0,47,0.00,,BKN090,0.00,VWS V14.01,2013-09-11 07:54:00,
2013-09-11 03:00:00,70.3,50.8,29.88,NE,54,0.0,0.0,50,0.00,,OVC075,0.00,VWS V14.01,2013-09-11 08:00:00,
2013-09-11 03:06:00,70.5,54.6,29.88,ENE,66,0.0,0.0,57,0.00,,OVC075,0.00,VWS V14.01,2013-09-11 08:06:00,
2013-09-11 03:11:00,70.2,55.6,29.88,SE,145,0.0,0.0,60,0.00,,OVC075,0.00,VWS V14.01,2013-09-11 08:11:00,
2013-09-11 03:17:00,69.8,55.8,29.91,South,177,0.0,0.0,61,0.00,,OVC075,0.00,VWS V14.01,2013-09-11 08:17:00,
2013-09-11 03:22:00,69.8,57.1,29.91,South,177,0.0,0.0,64,0.00,,OVC075,0.00,VWS V14.01,2013-09-11 08:22:00,
2013-09-11 03:28:00,69.6,56.9,29.91,South,184,0.0,0.0,64,0.00,,OVC075,0.00,VWS V14.01,2013-09-11 08:28:00,
2013-09-11 03:34:00,69.6,57.8,29.91,South,184,0.0,0.0,66,0.00,,OVC075,0.00,VWS V14.01,2013-09-11 08:34:00,
2013-09-11 03:39:00,69.6,58.6,29.91,South,181,0.0,0.0,68,0.00,,OVC075,0.00,VWS V14.01,2013-09-11 08:39:00,
2013-09-11 03:45:00,69.6,58.6,29.91,South,181,0.0,0.0,68,0.00,,OVC075,0.00,VWS V14.01,2013-09-11 08:45:00,
2013-09-11 03:51:00,69.6,59.4,29.88,South,182,0.0,0.0,70,0.00,,OVC075,0.00,VWS V14.01,2013-09-11 08:51:00,
2013-09-11 03:56:00,69.4,59.6,29.88,SW,218,5.8,5.8,71,0.00,,OVC075,0.00,VWS V14.01,2013-09-11 08:56:00,
2013-09-11 04:02:00,69.4,59.6,29.91,South,188,0.0,0.0,71,0.00,,RA,0.00,VWS V14.01,2013-09-11 09:02:00,
2013-09-11 04:07:00,69.3,59.5,29.91,SW,230,0.0,0.0,71,0.00,,RA,0.00,VWS V14.01,2013-09-11 09:07:00,
2013-09-11 04:13:00,69.3,59.5,29.91,SW,230,0.0,0.0,71,0.00,,RA,0.00,VWS V14.01,2013-09-11 09:13:00,
2013-09-11 04:19:00,69.3,60.2,29.91,SSW,203,0.0,0.0,73,0.00,,RA,0.00,VWS V14.01,2013-09-11 09:19:00,
2013-09-11 04:24:00,69.3,61.4,29.91,SW,223,5.4,8.1,76,0.00,,RA,0.00,VWS V14.01,2013-09-11 09:24:00,
2013-09-11 04:30:00,69.1,61.2,29.91,South,185,2.2,3.1,76,0.05,,RA,0.05,VWS V14.01,2013-09-11 09:30:00,
2013-09-11 04:35:00,69.1,61.2,29.91,South,188,0.0,0.0,76,0.05,,RA,0.05,VWS V14.01,2013-09-11 09:35:00,
2013-09-11 04:41:00,69.1,61.2,29.91,South,181,0.0,0.0,76,0.05,,RA,0.05,VWS V14.01,2013-09-11 09:41:00,
2013-09-11 04:46:00,69.1,61.2,29.91,South,181,0.0,0.0,76,0.05,,RA,0.05,VWS V14.01,2013-09-11 09:46:00,
2013-09-11 04:52:00,69.1,61.2,29.88,South,181,0.0,0.0,76,0.05,,RA,0.05,VWS V14.01,2013-09-11 09:52:00,
2013-09-11 04:57:00,69.1,61.6,29.88,South,183,0.0,0.0,77,0.05,,RA,0.05,VWS V14.01,2013-09-11 09:57:00,
2013-09-11 05:03:00,69.1,62.3,29.93,SW,220,6.3,7.2,79,0.05,,-RA,0.05,VWS V14.01,2013-09-11 10:03:00,
2013-09-11 05:09:00,68.9,62.5,29.93,SW,219,0.0,2.7,80,0.05,,-RA,0.05,VWS V14.01,2013-09-11 10:09:00,
2013-09-11 05:14:00,68.9,62.5,29.93,SSW,206,0.0,3.6,80,0.05,,-RA,0.05,VWS V14.01,2013-09-11 10:14:00,
2013-09-11 05:20:00,68.7,62.3,29.91,SSW,198,0.0,0.0,80,0.05,,-RA,0.05,VWS V14.01,2013-09-11 10:20:00,
2013-09-11 05:25:00,68.7,62.3,29.91,SE,141,0.0,0.0,80,0.11,,-RA,0.11,VWS V14.01,2013-09-11 10:25:00,
2013-09-11 05:30:00,68.5,62.1,29.91,SE,141,0.0,0.0,80,0.05,,-RA,0.11,VWS V14.01,2013-09-11 10:30:00,
2013-09-11 05:36:00,68.4,62.0,29.91,SW,231,0.0,0.0,80,0.05,,-RA,0.11,VWS V14.01,2013-09-11 10:36:00,
2013-09-11 05:42:00,68.0,61.6,29.91,SW,228,0.0,0.0,80,0.05,,-RA,0.11,VWS V14.01,2013-09-11 10:42:00,
2013-09-11 05:48:00,67.8,61.1,29.91,SW,227,2.7,2.7,79,0.05,,-RA,0.11,VWS V14.01,2013-09-11 10:48:00,
2013-09-11 05:54:00,67.8,60.3,29.91,South,185,0.0,0.0,77,0.05,,-RA,0.11,VWS V14.01,2013-09-11 10:54:00,
2013-09-11 05:59:00,67.8,60.0,29.91,SSW,202,0.0,0.0,76,0.05,,-RA,0.11,VWS V14.01,2013-09-11 10:59:00,
2013-09-11 06:04:00,67.8,60.0,29.91,SW,233,0.0,0.0,76,0.05,,RA,0.11,VWS V14.01,2013-09-11 11:04:00,
2013-09-11 06:09:00,67.8,60.3,29.91,SW,222,0.0,0.0,77,0.05,,RA,0.11,VWS V14.01,2013-09-11 11:09:00,
2013-09-11 06:14:00,67.8,60.3,29.91,SSW,203,0.0,0.0,77,0.05,,RA,0.11,VWS V14.01,2013-09-11 11:14:00,
2013-09-11 06:19:00,67.6,60.2,29.93,SW,221,0.0,0.0,77,0.05,,RA,0.11,VWS V14.01,2013-09-11 11:19:00,
2013-09-11 06:24:00,67.6,60.9,29.93,SW,234,5.4,6.3,79,0.00,,RA,0.11,VWS V14.01,2013-09-11 11:24:00,
2013-09-11 06:30:00,67.5,60.7,29.93,South,181,5.8,8.1,79,0.00,,RA,0.11,VWS V14.01,2013-09-11 11:30:00,
2013-09-11 06:35:00,67.3,59.8,29.96,SSW,202,5.4,8.3,77,0.00,,RA,0.11,VWS V14.01,2013-09-11 11:35:00,
2013-09-11 06:40:00,66.9,58.8,29.96,South,180,6.3,8.3,75,0.00,,RA,0.11,VWS V14.01,2013-09-11 11:40:00,
2013-09-11 06:46:00,66.9,58.0,29.96,SW,219,9.2,9.2,73,0.00,,RA,0.11,VWS V14.01,2013-09-11 11:46:00,
2013-09-11 06:51:00,66.9,57.2,29.96,SSW,201,3.1,5.8,71,0.00,,RA,0.11,VWS V14.01,2013-09-11 11:51:00,
2013-09-11 06:56:00,66.7,57.0,29.96,South,189,5.4,8.1,71,0.00,,RA,0.11,VWS V14.01,2013-09-11 11:56:00,
2013-09-11 07:02:00,66.6,56.9,29.96,SW,226,6.3,8.1,71,0.00,,RA,0.11,VWS V14.01,2013-09-11 12:02:00,
2013-09-11 07:07:00,66.6,57.3,29.96,SW,234,5.8,8.1,72,0.00,,RA,0.11,VWS V14.01,2013-09-11 12:07:00,
2013-09-11 07:13:00,66.6,57.3,29.96,WSW,250,4.0,5.8,72,0.00,,RA,0.11,VWS V14.01,2013-09-11 12:13:00,
2013-09-11 07:19:00,66.4,57.5,29.96,South,189,0.0,0.0,73,0.00,,RA,0.11,VWS V14.01,2013-09-11 12:19:00,
2013-09-11 07:24:00,66.4,57.8,29.96,SW,220,0.0,0.0,74,0.00,,RA,0.11,VWS V14.01,2013-09-11 12:24:00,
2013-09-11 07:29:00,66.4,57.8,29.96,WSW,244,0.0,0.0,74,0.00,,RA,0.11,VWS V14.01,2013-09-11 12:29:00,
2013-09-11 07:34:00,66.4,58.2,29.96,SW,227,0.0,4.9,75,0.00,,RA,0.11,VWS V14.01,2013-09-11 12:34:00,
2013-09-11 07:40:00,66.2,58.0,29.96,SW,224,0.0,0.0,75,0.00,,RA,0.11,VWS V14.01,2013-09-11 12:40:00,
2013-09-11 07:45:00,66.4,58.2,29.96,SW,224,0.0,0.0,75,0.00,,RA,0.11,VWS V14.01,2013-09-11 12:45:00,
2013-09-11 07:50:00,66.4,58.2,29.93,SW,224,0.0,0.0,75,0.00,,RA,0.11,VWS V14.01,2013-09-11 12:50:00,
2013-09-11 07:55:00,66.4,58.2,29.93,SW,224,0.0,0.0,75,0.00,,RA,0.11,VWS V14.01,2013-09-11 12:55:00,
2013-09-11 08:01:00,66.4,58.2,29.93,SW,223,0.0,0.0,75,0.00,,-RA,0.11,VWS V14.01,2013-09-11 13:01:00,
2013-09-11 08:07:00,66.6,58.4,29.91,SW,223,0.0,0.0,75,0.00,,-RA,0.11,VWS V14.01,2013-09-11 13:07:00,
2013-09-11 08:12:00,66.6,58.4,29.91,SW,223,0.0,0.0,75,0.00,,-RA,0.11,VWS V14.01,2013-09-11 13:12:00,
2013-09-11 08:18:00,66.6,58.8,29.91,SW,223,0.0,0.0,76,0.00,,-RA,0.11,VWS V14.01,2013-09-11 13:18:00,
2013-09-11 08:23:00,66.7,59.3,29.91,SW,223,0.0,0.0,77,0.00,,-RA,0.11,VWS V14.01,2013-09-11 13:23:00,
2013-09-11 08:29:00,66.7,59.7,29.91,SW,222,0.0,0.0,78,0.00,,-RA,0.11,VWS V14.01,2013-09-11 13:29:00,
2013-09-11 08:35:00,66.7,60.0,29.91,SW,222,0.0,0.0,79,0.00,,-RA,0.11,VWS V14.01,2013-09-11 13:35:00,
2013-09-11 08:40:00,67.1,60.7,29.91,SW,221,0.0,0.0,80,0.00,,-RA,0.11,VWS V14.01,2013-09-11 13:40:00,
2013-09-11 08:46:00,67.5,61.1,29.91,SW,219,0.0,0.0,80,0.00,,-RA,0.11,VWS V14.01,2013-09-11 13:46:00,
2013-09-11 08:52:00,67.8,61.4,29.91,SW,219,0.0,0.0,80,0.00,,-RA,0.11,VWS V14.01,2013-09-11 13:52:00,
2013-09-11 08:57:00,68.0,61.2,29.91,SW,221,0.0,0.0,79,0.00,,-RA,0.11,VWS V14.01,2013-09-11 13:57:00,
2013-09-11 09:03:00,68.5,57.2,29.91,NNW,327,2.7,5.4,67,0.00,,BKN100,0.11,VWS V14.01,2013-09-11 14:03:00,
2013-09-11 09:08:00,69.3,57.8,29.91,SSW,207,2.7,3.1,67,0.00,,BKN100,0.11,VWS V14.01,2013-09-11 14:08:00,
2013-09-11 09:13:00,70.0,52.1,29.91,SSW,205,4.0,4.0,53,0.00,,BKN100,0.11,VWS V14.01,2013-09-11 14:13:00,
2013-09-11 09:18:00,70.9,51.9,29.88,NNW,339,0.0,0.0,51,0.00,,BKN100,0.11,VWS V14.01,2013-09-11 14:18:00,
2013-09-11 09:24:00,71.4,50.7,29.88,SW,219,3.6,3.6,48,0.00,,BKN100,0.11,VWS V14.01,2013-09-11 14:24:00,
2013-09-11 09:30:00,71.8,49.3,29.88,SW,217,2.7,5.8,45,0.00,,BKN100,0.11,VWS V14.01,2013-09-11 14:30:00,
2013-09-11 09:35:00,72.1,49.0,29.91,SW,233,0.0,5.8,44,0.00,,BKN100,0.11,VWS V14.01,2013-09-11 14:35:00,
2013-09-11 09:40:00,72.5,48.8,29.91,SSW,213,4.9,4.9,43,0.00,,BKN100,0.11,VWS V14.01,2013-09-11 14:40:00,
2013-09-11 09:46:00,73.0,48.6,29.91,SSW,201,4.9,4.9,42,0.00,,BKN100,0.11,VWS V14.01,2013-09-11 14:46:00,
2013-09-11 09:52:00,73.2,46.1,29.93,SW,219,0.0,4.0,38,0.00,,BKN100,0.11,VWS V14.01,2013-09-11 14:52:00,
2013-09-11 09:57:00,73.4,45.6,29.93,SW,227,2.7,5.8,37,0.00,,BKN100,0.11,VWS V14.01,2013-09-11 14:57:00,
2013-09-11 10:03:00,73.4,47.0,29.93,West,265,0.0,2.7,39,0.00,,CLR,0.11,VWS V14.01,2013-09-11 15:03:00,
2013-09-11 10:08:00,73.4,46.3,29.93,SSW,203,3.6,6.3,38,0.00,,CLR,0.11,VWS V14.01,2013-09-11 15:08:00,
2013-09-11 10:14:00,73.4,48.3,29.93,SW,219,2.7,4.0,41,0.00,,CLR,0.11,VWS V14.01,2013-09-11 15:14:00,
2013-09-11 10:20:00,73.4,46.3,29.91,WSW,253,3.6,4.9,38,0.00,,CLR,0.11,VWS V14.01,2013-09-11 15:20:00,
2013-09-11 10:25:00,73.8,47.3,29.91,SW,226,3.6,3.6,39,0.00,,CLR,0.11,VWS V14.01,2013-09-11 15:25:00,
2013-09-11 10:30:00,74.1,47.6,29.91,SSW,211,3.1,5.8,39,0.00,,CLR,0.11,VWS V14.01,2013-09-11 15:30:00,
2013-09-11 10:35:00,74.3,44.9,29.93,SW,227,6.3,8.3,35,0.00,,CLR,0.11,VWS V14.01,2013-09-11 15:35:00,
2013-09-11 10:41:00,74.3,44.1,29.93,SW,229,7.6,8.7,34,0.00,,CLR,0.11,VWS V14.01,2013-09-11 15:41:00,
2013-09-11 10:46:00,74.5,45.8,29.93,SW,216,4.9,4.9,36,0.00,,CLR,0.11,VWS V14.01,2013-09-11 15:46:00,
2013-09-11 10:52:00,74.8,43.8,29.91,SW,225,5.8,5.8,33,0.00,,CLR,0.11,VWS V14.01,2013-09-11 15:52:00,
2013-09-11 10:58:00,75.2,44.2,29.91,SW,231,3.1,4.9,33,0.00,,CLR,0.11,VWS V14.01,2013-09-11 15:58:00,
2013-09-11 11:04:00,75.4,44.3,29.93,SSE,159,5.8,5.8,33,0.00,,CLR,0.11,VWS V14.01,2013-09-11 16:04:00,
2013-09-11 11:10:00,75.4,44.3,29.93,West,261,2.2,3.1,33,0.00,,CLR,0.11,VWS V14.01,2013-09-11 16:10:00,
2013-09-11 11:15:00,75.6,43.7,29.93,SSW,213,2.2,3.6,32,0.00,,CLR,0.11,VWS V14.01,2013-09-11 16:15:00,
2013-09-11 11:20:00,75.4,43.5,29.93,SSW,209,4.0,7.6,32,0.00,,CLR,0.11,VWS V14.01,2013-09-11 16:20:00,
2013-09-11 11:26:00,75.4,44.3,29.93,West,279,2.7,6.3,33,0.00,,CLR,0.11,VWS V14.01,2013-09-11 16:26:00,
2013-09-11 11:32:00,75.7,45.4,29.93,SSW,210,5.8,5.8,34,0.00,,CLR,0.11,VWS V14.01,2013-09-11 16:32:00,
2013-09-11 11:38:00,76.3,43.5,29.93,SW,227,3.1,6.7,31,0.00,,CLR,0.11,VWS V14.01,2013-09-11 16:38:00,
2013-09-11 11:44:00,76.3,43.5,29.93,WNW,293,5.8,5.8,31,0.00,,CLR,0.11,VWS V14.01,2013-09-11 16:44:00,
2013-09-11 11:49:00,75.9,44.0,29.93,SW,222,4.9,4.9,32,0.00,,CLR,0.11,VWS V14.01,2013-09-11 16:49:00,
2013-09-11 11:55:00,75.9,43.1,29.93,South,178,4.0,4.0,31,0.00,,CLR,0.11,VWS V14.01,2013-09-11 16:55:00,
2013-09-11 12:00:00,76.3,44.3,29.93,West,259,0.0,0.0,32,0.00,,CLR,0.11,VWS V14.01,2013-09-11 17:00:00,
2013-09-11 12:05:00,76.6,42.9,29.93,NNW,331,0.0,3.1,30,0.00,,CLR,0.11,VWS V14.01,2013-09-11 17:05:00,
2013-09-11 12:10:00,76.5,43.6,29.93,SW,216,3.6,5.4,31,0.00,,CLR,0.11,VWS V14.01,2013-09-11 17:10:00,
2013-09-11 12:16:00,76.1,39.7,29.93,SSW,197,6.3,8.1,27,0.00,,CLR,0.11,VWS V14.01,2013-09-11 17:16:00,
2013-09-11 12:21:00,75.9,41.4,29.93,WSW,246,2.2,4.0,29,0.00,,CLR,0.11,VWS V14.01,2013-09-11 17:21:00,
2013-09-11 12:26:00,76.1,42.5,29.93,SW,219,3.6,3.6,30,0.00,,CLR,0.11,VWS V14.01,2013-09-11 17:26:00,
2013-09-11 12:32:00,76.5,39.1,29.93,SW,227,5.4,10.1,26,0.00,,CLR,0.11,VWS V14.01,2013-09-11 17:32:00,
2013-09-11 12:37:00,77.2,39.7,29.93,WSW,246,3.1,3.6,26,0.00,,CLR,0.11,VWS V14.01,2013-09-11 17:37:00,
2013-09-11 12:42:00,78.1,40.4,29.93,SSW,199,3.6,7.6,26,0.00,,CLR,0.11,VWS V14.01,2013-09-11 17:42:00,
2013-09-11 12:48:00,79.0,38.1,29.93,SW,233,3.6,4.9,23,0.00,,CLR,0.11,VWS V14.01,2013-09-11 17:48:00,
2013-09-11 12:54:00,78.4,37.6,29.93,NNW,328,0.0,4.0,23,0.00,,CLR,0.11,VWS V14.01,2013-09-11 17:54:00,
2013-09-11 12:59:00,78.1,36.2,29.93,SW,223,5.4,5.8,22,0.00,,CLR,0.11,VWS V14.01,2013-09-11 17:59:00,
2013-09-11 13:04:00,78.4,37.6,29.91,SSW,195,3.6,3.6,23,0.00,,CLR,0.11,VWS V14.01,2013-09-11 18:04:00,
2013-09-11 13:10:00,78.6,36.6,29.91,SW,219,8.3,8.3,22,0.00,,CLR,0.11,VWS V14.01,2013-09-11 18:10:00,
2013-09-11 13:15:00,78.4,36.5,29.91,SW,233,5.8,6.3,22,0.00,,CLR,0.11,VWS V14.01,2013-09-11 18:15:00,
2013-09-11 13:20:00,78.3,37.5,29.93,SW,235,4.9,6.3,23,0.00,,CLR,0.11,VWS V14.01,2013-09-11 18:20:00,
2013-09-11 13:26:00,78.1,36.2,29.93,SW,226,5.4,9.6,22,0.00,,CLR,0.11,VWS V14.01,2013-09-11 18:26:00,
2013-09-11 13:32:00,78.1,37.3,29.91,South,185,4.0,5.4,23,0.00,,CLR,0.11,VWS V14.01,2013-09-11 18:32:00,
2013-09-11 13:37:00,79.0,36.9,29.91,South,191,4.9,8.7,22,0.00,,CLR,0.11,VWS V14.01,2013-09-11 18:37:00,
2013-09-11 13:43:00,79.0,36.9,29.91,WSW,245,2.2,5.8,22,0.00,,CLR,0.11,VWS V14.01,2013-09-11 18:43:00,
2013-09-11 13:48:00,78.6,36.6,29.91,SW,227,4.0,5.4,22,0.00,,CLR,0.11,VWS V14.01,2013-09-11 18:48:00,
2013-09-11 13:53:00,78.3,37.5,29.91,SW,219,4.9,5.4,23,0.00,,CLR,0.11,VWS V14.01,2013-09-11 18:53:00,
2013-09-11 13:58:00,77.9,37.2,29.91,WSW,245,3.6,4.0,23,0.00,,CLR,0.11,VWS V14.01,2013-09-11 18:58:00,
2013-09-11 14:04:00,77.9,37.2,29.91,SW,220,5.8,8.7,23,0.00,,CLR,0.11,VWS V14.01,2013-09-11 19:04:00,
2013-09-11 14:09:00,77.9,39.3,29.91,WSW,250,2.2,3.6,25,0.00,,CLR,0.11,VWS V14.01,2013-09-11 19:09:00,
2013-09-11 14:15:00,77.9,44.0,29.91,WSW,240,5.4,6.3,30,0.00,,CLR,0.11,VWS V14.01,2013-09-11 19:15:00,
2013-09-11 14:20:00,77.9,44.9,29.91,SSW,193,9.6,9.6,31,0.00,,CLR,0.11,VWS V14.01,2013-09-11 19:20:00,
2013-09-11 14:26:00,77.4,43.5,29.91,WSW,248,5.8,12.3,30,0.00,,CLR,0.11,VWS V14.01,2013-09-11 19:26:00,
2013-09-11 14:31:00,77.5,43.7,29.91,WSW,237,7.2,8.3,30,0.00,,CLR,0.11,VWS V14.01,2013-09-11 19:31:00,
2013-09-11 14:37:00,77.5,43.7,29.91,SW,223,4.9,8.3,30,0.00,,CLR,0.11,VWS V14.01,2013-09-11 19:37:00,
2013-09-11 14:43:00,77.7,43.8,29.91,SW,229,3.6,6.3,30,0.00,,CLR,0.11,VWS V14.01,2013-09-11 19:43:00,
2013-09-11 14:48:00,78.1,43.3,29.91,SW,236,4.0,8.7,29,0.00,,CLR,0.11,VWS V14.01,2013-09-11 19:48:00,
2013-09-11 14:54:00,77.7,43.8,29.91,SW,227,6.3,7.6,30,0.00,,CLR,0.11,VWS V14.01,2013-09-11 19:54:00,
2013-09-11 15:00:00,77.5,41.9,29.91,WSW,244,4.0,7.6,28,0.00,,CLR,0.11,VWS V14.01,2013-09-11 20:00:00,
2013-09-11 15:05:00,77.7,42.0,29.91,SSW,204,7.2,7.2,28,0.00,,FEW033,0.11,VWS V14.01,2013-09-11 20:05:00,
2013-09-11 15:11:00,77.9,42.2,29.91,WSW,239,8.3,8.7,28,0.00,,FEW033,0.11,VWS V14.01,2013-09-11 20:11:00,
2013-09-11 15:16:00,77.7,42.0,29.91,West,281,5.8,5.8,28,0.00,,FEW033,0.11,VWS V14.01,2013-09-11 20:16:00,
2013-09-11 15:22:00,77.7,43.0,29.91,SW,216,7.6,7.6,29,0.00,,FEW033,0.11,VWS V14.01,2013-09-11 20:22:00,
2013-09-11 15:28:00,78.1,41.4,29.91,SW,226,6.3,7.6,27,0.00,,FEW033,0.11,VWS V14.01,2013-09-11 20:28:00,
2013-09-11 15:33:00,77.9,40.3,29.91,WSW,248,3.1,11.4,26,0.00,,FEW033,0.11,VWS V14.01,2013-09-11 20:33:00,
2013-09-11 15:38:00,78.4,40.8,29.91,WSW,254,3.6,6.3,26,0.00,,FEW033,0.11,VWS V14.01,2013-09-11 20:38:00,
2013-09-11 15:43:00,79.0,40.2,29.91,West,266,8.1,8.1,25,0.00,,FEW033,0.11,VWS V14.01,2013-09-11 20:43:00,
2013-09-11 15:49:00,78.6,39.9,29.91,SW,214,5.4,5.4,25,0.00,,FEW033,0.11,VWS V14.01,2013-09-11 20:49:00,
2013-09-11 15:54:00,78.6,39.9,29.91,SSW,203,4.0,4.0,25,0.00,,FEW033,0.11,VWS V14.01,2013-09-11 20:54:00,
2013-09-11 15:59:00,79.0,39.2,29.91,WSW,248,5.4,5.8,24,0.00,,FEW033,0.11,VWS V14.01,2013-09-11 20:59:00,
2013-09-11 16:04:00,79.0,38.1,29.91,SSW,209,8.1,8.7,23,0.00,,CLR,0.11,VWS V14.01,2013-09-11 21:04:00,
2013-09-11 16:10:00,78.8,39.0,29.91,WSW,238,5.4,5.4,24,0.00,,CLR,0.11,VWS V14.01,2013-09-11 21:10:00,
2013-09-11 16:15:00,78.6,39.9,29.91,SSW,193,7.6,8.3,25,0.00,,CLR,0.11,VWS V14.01,2013-09-11 21:15:00,
2013-09-11 16:21:00,78.4,38.7,29.91,South,187,5.4,8.1,24,0.00,,CLR,0.11,VWS V14.01,2013-09-11 21:21:00,
2013-09-11 16:26:00,78.6,38.8,29.91,SW,230,6.3,8.1,24,0.00,,CLR,0.11,VWS V14.01,2013-09-11 21:26:00,
2013-09-11 16:32:00,78.8,37.9,29.91,SSW,197,4.9,8.3,23,0.00,,CLR,0.11,VWS V14.01,2013-09-11 21:32:00,
2013-09-11 16:37:00,78.8,39.0,29.91,SW,225,3.6,4.9,24,0.00,,CLR,0.11,VWS V14.01,2013-09-11 21:37:00,
2013-09-11 16:43:00,78.8,39.0,29.91,SSW,198,4.0,7.2,24,0.00,,CLR,0.11,VWS V14.01,2013-09-11 21:43:00,
2013-09-11 16:48:00,78.6,38.8,29.91,West,261,0.0,3.6,24,0.00,,CLR,0.11,VWS V14.01,2013-09-11 21:48:00,
2013-09-11 16:53:00,78.4,38.7,29.91,SW,232,8.1,8.1,24,0.00,,CLR,0.11,VWS V14.01,2013-09-11 21:53:00,
2013-09-11 16:59:00,78.1,38.4,29.91,SW,223,4.9,5.4,24,0.00,,CLR,0.11,VWS V14.01,2013-09-11 21:59:00,
2013-09-11 17:04:00,77.9,38.2,29.91,SW,227,3.6,7.6,24,0.00,,CLR,0.11,VWS V14.01,2013-09-11 22:04:00,
2013-09-11 17:09:00,77.7,39.1,29.91,SW,231,4.0,5.8,25,0.00,,CLR,0.11,VWS V14.01,2013-09-11 22:09:00,
2013-09-11 17:14:00,77.7,38.1,29.91,SSW,208,4.0,6.3,24,0.00,,CLR,0.11,VWS V14.01,2013-09-11 22:14:00,
2013-09-11 17:19:00,77.7,39.1,29.88,SW,230,6.3,8.3,25,0.00,,CLR,0.11,VWS V14.01,2013-09-11 22:19:00,
2013-09-11 17:25:00,77.7,40.1,29.88,SE,136,4.0,6.3,26,0.00,,CLR,0.11,VWS V14.01,2013-09-11 22:25:00,
2013-09-11 17:30:00,77.7,41.1,29.88,SW,222,3.6,6.3,27,0.00,,CLR,0.11,VWS V14.01,2013-09-11 22:30:00,
2013-09-11 17:35:00,77.7,41.1,29.88,SW,230,5.4,5.4,27,0.00,,CLR,0.11,VWS V14.01,2013-09-11 22:35:00,
2013-09-11 17:41:00,78.1,40.4,29.88,SW,229,3.1,5.4,26,0.00,,CLR,0.11,VWS V14.01,2013-09-11 22:41:00,
2013-09-11 17:46:00,78.1,40.4,29.88,SW,221,5.8,5.8,26,0.00,,CLR,0.11,VWS V14.01,2013-09-11 22:46:00,
2013-09-11 17:52:00,77.9,40.3,29.88,SSW,204,3.6,4.9,26,0.00,,CLR,0.11,VWS V14.01,2013-09-11 22:52:00,
2013-09-11 17:58:00,77.5,40.0,29.88,WSW,240,3.6,5.8,26,0.00,,CLR,0.11,VWS V14.01,2013-09-11 22:58:00,
2013-09-11 18:03:00,77.4,40.8,29.88,SW,233,3.6,4.9,27,0.00,,CLR,0.11,VWS V14.01,2013-09-11 23:03:00,
2013-09-11 18:09:00,77.2,40.7,29.88,SW,216,4.0,5.8,27,0.00,,CLR,0.11,VWS V14.01,2013-09-11 23:09:00,
2013-09-11 18:14:00,76.8,41.3,29.88,SW,220,3.1,5.8,28,0.00,,CLR,0.11,VWS V14.01,2013-09-11 23:14:00,
2013-09-11 18:19:00,76.6,42.0,29.88,SSW,208,3.1,4.9,29,0.00,,CLR,0.11,VWS V14.01,2013-09-11 23:19:00,
2013-09-11 18:24:00,76.3,42.6,29.88,SW,225,6.3,6.3,30,0.00,,CLR,0.11,VWS V14.01,2013-09-11 23:24:00,
2013-09-11 18:30:00,75.7,42.1,29.88,SSW,195,4.9,6.3,30,0.00,,CLR,0.11,VWS V14.01,2013-09-11 23:30:00,
2013-09-11 18:35:00,75.6,42.8,29.88,SW,225,5.4,5.4,31,0.00,,CLR,0.11,VWS V14.01,2013-09-11 23:35:00,
2013-09-11 18:41:00,75.4,42.7,29.88,SW,236,2.7,4.9,31,0.00,,CLR,0.11,VWS V14.01,2013-09-11 23:41:00,
2013-09-11 18:46:00,75.0,42.4,29.88,South,185,0.0,0.0,31,0.00,,CLR,0.11,VWS V14.01,2013-09-11 23:46:00,
2013-09-11 18:51:00,74.7,42.9,29.88,SSW,207,4.0,6.7,32,0.00,,CLR,0.11,VWS V14.01,2013-09-11 23:51:00,
2013-09-11 18:57:00,74.5,42.7,29.88,SW,233,0.0,2.7,32,0.00,,CLR,0.11,VWS V14.01,2013-09-11 23:57:00,
2013-09-11 19:02:00,74.1,42.4,29.88,SW,229,4.5,4.5,32,0.00,,CLR,0.11,VWS V14.01,2013-09-12 00:02:00,
2013-09-11 19:08:00,73.9,42.2,29.88,SW,218,4.9,4.9,32,0.00,,CLR,0.11,VWS V14.01,2013-09-12 00:08:00,
2013-09-11 19:13:00,73.8,42.9,29.88,SW,235,3.6,4.0,33,0.00,,CLR,0.11,VWS V14.01,2013-09-12 00:13:00,
2013-09-11 19:19:00,73.4,42.6,29.88,WSW,245,5.8,5.8,33,0.00,,CLR,0.11,VWS V14.01,2013-09-12 00:19:00,
2013-09-11 19:24:00,73.2,43.2,29.88,SW,220,5.4,5.4,34,0.00,,CLR,0.11,VWS V14.01,2013-09-12 00:24:00,
2013-09-11 19:29:00,73.0,43.0,29.88,SW,218,2.7,4.5,34,0.00,,CLR,0.11,VWS V14.01,2013-09-12 00:29:00,
2013-09-11 19:35:00,72.7,43.5,29.88,WSW,240,2.2,3.6,35,0.00,,CLR,0.11,VWS V14.01,2013-09-12 00:35:00,
2013-09-11 19:40:00,72.5,43.3,29.88,SSW,205,3.1,3.1,35,0.00,,CLR,0.11,VWS V14.01,2013-09-12 00:40:00,
2013-09-11 19:45:00,72.3,43.9,29.88,WSW,242,6.3,6.3,36,0.00,,CLR,0.11,VWS V14.01,2013-09-12 00:45:00,
2013-09-11 19:50:00,72.1,43.7,29.88,SW,226,0.0,0.0,36,0.00,,CLR,0.11,VWS V14.01,2013-09-12 00:50:00,
2013-09-11 19:56:00,72.0,44.3,29.88,WSW,243,4.0,4.0,37,0.00,,CLR,0.11,VWS V14.01,2013-09-12 00:56:00,
2013-09-11 20:01:00,71.8,44.1,29.88,SW,220,5.8,5.8,37,0.00,,CLR,0.11,VWS V14.01,2013-09-12 01:01:00,
2013-09-11 20:06:00,71.8,44.8,29.88,WSW,243,5.4,5.4,38,0.00,,CLR,0.11,VWS V14.01,2013-09-12 01:06:00,
2013-09-11 20:11:00,71.6,44.7,29.88,SW,217,4.9,6.3,38,0.00,,CLR,0.11,VWS V14.01,2013-09-12 01:11:00,
2013-09-11 20:16:00,71.8,44.8,29.88,SW,220,5.8,5.8,38,0.00,,CLR,0.11,VWS V14.01,2013-09-12 01:16:00,
2013-09-11 20:22:00,71.8,44.8,29.88,SSW,213,2.7,4.0,38,0.00,,CLR,0.11,VWS V14.01,2013-09-12 01:22:00,
2013-09-11 20:28:00,71.6,44.7,29.88,SSW,207,5.4,5.4,38,0.00,,CLR,0.11,VWS V14.01,2013-09-12 01:28:00,
2013-09-11 20:33:00,71.6,44.7,29.88,SSW,197,3.1,4.0,38,0.00,,CLR,0.11,VWS V14.01,2013-09-12 01:33:00,
2013-09-11 20:39:00,71.4,45.2,29.88,SW,215,5.8,5.8,39,0.00,,CLR,0.11,VWS V14.01,2013-09-12 01:39:00,
2013-09-11 20:45:00,71.2,45.0,29.88,SW,227,3.6,4.9,39,0.00,,CLR,0.11,VWS V14.01,2013-09-12 01:45:00,
2013-09-11 20:50:00,71.2,45.7,29.88,WSW,238,2.7,3.6,40,0.00,,CLR,0.11,VWS V14.01,2013-09-12 01:50:00,
2013-09-11 20:56:00,71.1,45.5,29.88,SW,217,5.4,5.8,40,0.00,,CLR,0.11,VWS V14.01,2013-09-12 01:56:00,
2013-09-11 21:01:00,70.9,46.0,29.88,SW,220,3.6,4.0,41,0.00,,CLR,0.11,VWS V14.01,2013-09-12 02:01:00,
2013-09-11 21:07:00,70.9,46.0,29.88,SW,215,4.9,4.9,41,0.00,,CLR,0.11,VWS V14.01,2013-09-12 02:07:00,
2013-09-11 21:13:00,70.7,45.9,29.88,SW,221,3.1,4.0,41,0.00,,CLR,0.11,VWS V14.01,2013-09-12 02:13:00,
2013-09-11 21:18:00,70.7,46.5,29.88,SW,222,3.1,4.9,42,0.00,,CLR,0.11,VWS V14.01,2013-09-12 02:18:00,
2013-09-11 21:24:00,70.7,46.5,29.88,WSW,237,2.7,5.8,42,0.00,,CLR,0.11,VWS V14.01,2013-09-12 02:24:00,
2013-09-11 21:29:00,70.5,46.3,29.88,SSW,211,6.3,6.3,42,0.00,,CLR,0.11,VWS V14.01,2013-09-12 02:29:00,
2013-09-11 21:34:00,70.5,46.3,29.88,SW,234,3.6,4.0,42,0.00,,CLR,0.11,VWS V14.01,2013-09-12 02:34:00,
2013-09-11 21:39:00,70.5,46.3,29.88,SW,215,6.3,6.3,42,0.00,,CLR,0.11,VWS V14.01,2013-09-12 02:39:00,
2013-09-11 21:44:00,70.7,45.9,29.88,SW,226,4.9,5.8,41,0.00,,CLR,0.11,VWS V14.01,2013-09-12 02:44:00,
2013-09-11 21:49:00,70.9,46.0,29.88,West,265,8.3,8.3,41,0.00,,CLR,0.11,VWS V14.01,2013-09-12 02:49:00,
2013-09-11 21:55:00,70.9,46.0,29.88,SW,231,0.0,2.7,41,0.00,,CLR,0.11,VWS V14.01,2013-09-12 02:55:00,
2013-09-11 22:00:00,70.7,45.9,29.88,SSW,208,8.1,9.6,41,0.00,,CLR,0.11,VWS V14.01,2013-09-12 03:00:00,
2013-09-11 22:05:00,70.7,45.9,29.88,North,357,4.9,4.9,41,0.00,,CLR,0.11,VWS V14.01,2013-09-12 03:05:00,
2013-09-11 22:11:00,70.7,45.2,29.88,North,353,3.1,8.1,40,0.00,,CLR,0.11,VWS V14.01,2013-09-12 03:11:00,
2013-09-11 22:16:00,70.7,44.5,29.88,NNW,346,3.1,3.6,39,0.00,,CLR,0.11,VWS V14.01,2013-09-12 03:16:00,
2013-09-11 22:21:00,70.7,44.5,29.91,West,272,3.6,5.4,39,0.00,,CLR,0.11,VWS V14.01,2013-09-12 03:21:00,
2013-09-11 22:27:00,70.3,44.2,29.91,North,353,3.1,4.0,39,0.00,,CLR,0.11,VWS V14.01,2013-09-12 03:27:00,
2013-09-11 22:32:00,70.2,44.7,29.91,North,357,3.1,5.8,40,0.00,,CLR,0.11,VWS V14.01,2013-09-12 03:32:00,
2013-09-11 22:38:00,70.2,44.7,29.91,North,2,4.9,5.8,40,0.00,,CLR,0.11,VWS V14.01,2013-09-12 03:38:00,
2013-09-11 22:43:00,70.2,44.1,29.91,NNW,341,5.4,6.3,39,0.00,,CLR,0.11,VWS V14.01,2013-09-12 03:43:00,
2013-09-11 22:49:00,70.0,43.2,29.91,NNW,343,6.3,6.3,38,0.00,,CLR,0.11,VWS V14.01,2013-09-12 03:49:00,
2013-09-11 22:55:00,69.8,40.9,29.91,NNW,332,6.3,10.1,35,0.00,,CLR,0.11,VWS V14.01,2013-09-12 03:55:00,
2013-09-11 23:00:00,69.8,39.4,29.91,NNW,345,6.3,8.1,33,0.00,,CLR,0.11,VWS V14.01,2013-09-12 04:00:00,
2013-09-11 23:01:00,69.8,39.4,29.91,NNW,331,5.8,7.2,33,0.00,,CLR,0.11,VWS V14.01,2013-09-12 04:01:00,
2013-09-11 23:02:00,69.8,39.4,29.88,North,357,5.4,7.6,33,0.00,,CLR,0.11,VWS V14.01,2013-09-12 04:02:00,
2013-09-11 23:03:00,69.8,39.4,29.88,NNW,327,5.4,7.2,33,0.00,,CLR,0.11,VWS V14.01,2013-09-12 04:03:00,
2013-09-11 23:06:00,69.8,39.4,29.88,NW,318,8.3,8.3,33,0.00,,CLR,0.11,VWS V14.01,2013-09-12 04:06:00,
2013-09-11 23:11:00,69.6,39.3,29.88,NW,316,5.4,6.3,33,0.00,,CLR,0.11,VWS V14.01,2013-09-12 04:11:00,
2013-09-11 23:12:00,69.4,39.1,29.88,North,0,5.4,6.3,33,0.00,,CLR,0.11,VWS V14.01,2013-09-12 04:12:00,
2013-09-11 23:18:00,69.3,39.0,29.91,NNW,334,4.0,4.0,33,0.00,,CLR,0.11,VWS V14.01,2013-09-12 04:18:00,
2013-09-11 23:24:00,68.9,39.4,29.91,North,353,3.6,4.9,34,0.00,,CLR,0.11,VWS V14.01,2013-09-12 04:24:00,
2013-09-11 23:29:00,68.5,39.1,29.91,NE,40,3.1,3.1,34,0.00,,CLR,0.11,VWS V14.01,2013-09-12 04:29:00,
2013-09-11 23:34:00,68.2,38.8,29.91,North,353,3.6,4.0,34,0.00,,CLR,0.11,VWS V14.01,2013-09-12 04:34:00,
2013-09-11 23:39:00,67.8,39.2,29.91,NNW,340,3.6,5.8,35,0.00,,CLR,0.11,VWS V14.01,2013-09-12 04:39:00,
2013-09-11 23:45:00,67.5,39.6,29.91,NNW,343,3.1,3.6,36,0.00,,CLR,0.11,VWS V14.01,2013-09-12 04:45:00,
2013-09-11 23:51:00,67.1,39.3,29.88,NNW,348,3.1,4.0,36,0.00,,CLR,0.11,VWS V14.01,2013-09-12 04:51:00,
2013-09-11 23:56:00,66.9,39.8,29.88,North,349,3.1,4.9,37,0.00,,CLR,0.11,VWS V14.01,2013-09-12 04:56:00,